This is the latest recevied weather packets stored in our database for station/object KI4NG. If no packets are shown the sender has not sent any weather packets the latest 10 day(s).
| Time | Temp. | Humidity | Pressure | Rain* | Wind** | Luminosity | Snow |
|---|---|---|---|---|---|---|---|
| 1777768917 | 8.33° C | 82% | 1017.5 hPa | 0 mm | - | 0 W/m² | - |
| 1777768614 | 8.33° C | 81% | 1017.3 hPa | 0 mm | - | 0 W/m² | - |
| 1777768311 | 8.33° C | 80% | 1017 hPa | 0 mm | - | 0 W/m² | - |
| 1777768008 | 8.89° C | 79% | 1017.2 hPa | 0 mm | - | 1 W/m² | - |
| 1777767704 | 8.89° C | 79% | 1017.1 hPa | 0 mm | - | 2 W/m² | - |
| 1777767400 | 8.89° C | 78% | 1017.2 hPa | 0 mm | - | 6 W/m² | - |
| 1777767097 | 8.89° C | 77% | 1017 hPa | 0 mm | - | 10 W/m² | - |
| 1777766795 | 9.44° C | 76% | 1017.2 hPa | 0 mm | - | 11 W/m² | - |
| 1777766492 | 9.44° C | 75% | 1017 hPa | 0 mm | - | 15 W/m² | - |
| 1777766188 | 9.44° C | 75% | 1017 hPa | 0 mm | - | 19 W/m² | - |
| 1777765887 | 10° C | 73% | 1016.9 hPa | 0 mm | - | 22 W/m² | - |
| 1777765582 | 10.56° C | 71% | 1016.7 hPa | 0 mm | - | 27 W/m² | - |
| 1777765280 | 10.56° C | 68% | 1016.7 hPa | 0 mm | - | 34 W/m² | - |
| 1777764976 | 10.56° C | 71% | 1016.8 hPa | 0 mm | - | 48 W/m² | - |
| 1777764673 | 10.56° C | 70% | 1016.8 hPa | 0 mm | - | 62 W/m² | - |
| 1777764368 | 10.56° C | 69% | 1016.9 hPa | 0 mm | - | 57 W/m² | - |
| 1777764066 | 10.56° C | 66% | 1016.9 hPa | 0 mm | - | 51 W/m² | - |
| 1777763763 | 10.56° C | 64% | 1016.6 hPa | 0 mm | - | 60 W/m² | - |
| 1777763461 | 10.56° C | 67% | 1016.7 hPa | 0 mm | - | 70 W/m² | - |
| 1777763159 | 11.11° C | 66% | 1016.6 hPa | 0 mm | - | 45 W/m² | - |
| 1777762857 | 11.67° C | 62% | 1016.6 hPa | 0 mm | - | 53 W/m² | - |
| 1777762552 | 11.67° C | 62% | 1016.8 hPa | 0 mm | - | 112 W/m² | - |
| 1777762249 | 12.22° C | 62% | 1016.7 hPa | 0 mm | - | 62 W/m² | - |
| 1777761946 | 12.22° C | 61% | 1016.6 hPa | 0 mm | - | 188 W/m² | - |
| 1777761643 | 12.78° C | 60% | 1016.5 hPa | 0 mm | - | 217 W/m² | - |
* Rain latest hour (hover to see other rain measurements)
** Current wind speed in m/s (hover to see current wind gust speed)